Location: Epalinges
(46.5518°N, 6.6683°E)
Time: 19:14:48
(UTC+00:00)

Meteor 2-13 Rocket - Pass Details

Date: 20 June 2021
Orbit: 935 x 958 km, 82.5° (Epoch: 01 August)

Event Time Altitude Azimuth Distance (km) Brightness Sun altitude
Exits shadow 00:23:58 33° 187° (S) 1,561 5.0 -19.1°
Maximum altitude 00:26:59 89° 102° (ESE) 966 4.4 -19.0°
Drops below altitude 10° 00:33:11 10° 9° (N) 2,701 8.1 -18.8°
Sets 00:35:42 0° 10° (N) 3,651 9.2 -18.7°
